ITASat 1
1 43786U 18099AE 23341.15757863 .00004321 00000-0 33795-3 0 9990
2 43786 97.5465 38.9881 0016603 278.6630 81.2714 15.01472963273587
EAGLET 1
1 43790U 18099AJ 23341.60026181 .00002909 00000-0 23375-3 0 9990
2 43790 97.5626 39.8174 0015913 265.5890 94.3516 15.00705603273373
ESEO
1 43792U 18099AL 23341.16129461 .00001898 00000-0 16331-3 0 9998
2 43792 97.5468 37.2446 0011459 260.2314 99.7615 14.98497336273283
CSIM
1 43793U 18099AM 23341.13402026 .00011052 00000-0 70775-3 0 9992
2 43793 97.5575 43.3465 0013490 255.6717 104.3013 15.08652528273614
JO-97
1 43803U 18099AX 23341.45611125 .00005859 00000-0 43350-3 0 9998
2 43803 97.5498 39.7092 0010134 238.6092 121.4143 15.03502363273704
Suomi 100
1 43804U 18099AY 23341.49738670 .00005011 00000-0 37542-3 0 9994
2 43804 97.5596 39.5469 0015603 233.7431 126.2353 15.03046383273700
CHOMPTT
1 43855U 18104G 23341.24464449 .00040385 00000-0 60590-3 0 9992
2 43855 85.0247 47.3139 0008088 32.1966 327.9786 15.54704729277317
ISAT
1 43879U 18111D 23341.29863498 .00006312 00000-0 44085-3 0 9991
2 43879 97.6296 243.5303 0012759 301.2320 58.7655 15.05625929270354
UWE-4
1 43880U 18111E 23341.26398761 .00006144 00000-0 43412-3 0 9992
2 43880 97.6245 243.9261 0016227 311.7150 48.2687 15.05161813270376
Sparrow
1 43881U 18111F 23341.26174167 .00006550 00000-0 45253-3 0 9991
2 43881 97.6391 245.0698 0010568 351.5147 8.5899 15.06039301270401
Lume 1
1 43908U 18111AJ 23341.21834702 .00101536 00000-0 82155-3 0 9996
2 43908 97.1038 223.8059 0003725 300.5164 59.5731 15.70488406276287
AISTechSat 3
1 44103U 19018AB 23341.77598761 .00049100 00000-0 67680-3 0 9998
2 44103 97.2257 40.3744 0005839 8.1740 351.9610 15.57059464261351
AISat 1
1 44104U 19018AC 23341.55464469 .00031741 00000-0 41017-3 0 9990
2 44104 97.3707 77.2738 0030170 342.9618 17.0622 15.58334189262607
Prox-1
1 44339U 19036A 23341.47921951 .00005828 00000-0 10846-2 0 9997
2 44339 24.0023 20.5265 0009598 24.3950 335.6997 14.62428069236960
SONATE
1 44400U 19038Q 23341.50408800 .00010422 00000-0 40388-3 0 9996
2 44400 97.7017 323.4641 0020996 68.2432 292.1037 15.26143198244621
BeeSat 9
1 44412U 19038AC 23341.49722254 .00033751 00000-0 75470-3 0 9999
2 44412 97.6844 329.4396 0014894 54.2579 306.0051 15.43309823244754
JAISAT-1
1 44419U 19038F 23341.55296687 .00035844 00000-0 80067-3 0 9992
2 44419 97.6840 330.6182 0014290 51.7092 308.5438 15.43337143245142
Taurus 1
1 44530U 19059C 23341.78051662 .00003593 00000-0 89635-3 0 9992
2 44530 98.5640 92.5918 0012016 279.8822 80.1016 14.52194262223810
Duchifat 3
1 44854U 19089C 23341.81979890 .00008543 00000-0 51685-3 0 9994
2 44854 36.9589 130.8016 0008373 314.4660 45.5400 15.10178384219054
OPS-SAT
1 44878U 19092F 23341.52881970 .00035525 00000-0 71084-3 0 9998
2 44878 97.4614 173.7841 0006394 228.5449 131.5252 15.46670162220462
TO-108
1 44881U 19093C 23341.79449320 .00001035 00000-0 13349-3 0 9990
2 44881 97.8489 57.2155 0013545 228.1422 131.8637 14.83057539214524
FloripaSat 1
1 44885U 19093G 23341.80120883 .00003124 00000-0 34895-3 0 9996
2 44885 97.8579 61.1320 0012386 226.3299 133.6891 14.87644826214741
RS-44
1 44909U 19096E 23341.23885691 .00000018 00000-0 20333-4 0 9990
2 44909 82.5224 232.9474 0218013 142.1366 219.5299 12.79724291184295
BY70-2
1 45857U 20042B 23341.78989246 .00024570 00000-0 19248-2 0 9997
2 45857 97.9205 63.3219 0006689 146.5484 213.6163 15.00968734185478
UPMSat 2
1 46276U 20061E 23341.54737637 .00008714 00000-0 32604-3 0 9997
2 46276 97.3267 45.7462 0002634 86.0478 274.1062 15.27547249180712
AmicalSat
1 46287U 20061R 23341.17145442 .00014989 00000-0 58221-3 0 9999
2 46287 97.3796 44.8687 0002209 154.8525 205.2821 15.26164329180031
SALSAT
1 46495U 20068K 23341.42354488 .00004947 00000-0 30826-3 0 9991
2 46495 97.7913 291.6995 0013024 249.2548 110.7285 15.09970265175192
CAPE 3
1 47309U 21002A 23341.77658891 .00094056 00000-0 93298-3 0 9990
2 47309 60.6673 101.4093 0024030 38.3569 321.9241 15.64846276161193
AO-109
1 47311U 21002C 23341.53481206 .00047212 00000-0 70040-3 0 9993
2 47311 60.6744 105.8282 0024486 39.6641 320.6246 15.54560661161071
ExoCube 2
1 47319U 21002L 23341.52408442 .00045612 00000-0 71577-3 0 9999
2 47319 60.6719 109.0622 0025303 39.5016 320.7923 15.53008023160989
UVSQ-SAT
1 47438U 21006AB 23341.15375396 .00020324 00000-0 65793-3 0 9991
2 47438 97.3612 36.3542 0008054 180.1326 179.9915 15.32036400159052
YUSAT 1
1 47439U 21006AC 23341.15968810 .00030202 00000-0 82037-3 0 9997
2 47439 97.3613 38.0808 0007231 174.0486 186.0846 15.37502888159160
SOMP 2b
1 47445U 21006AJ 23341.11328504 .00019273 00000-0 64768-3 0 9996
2 47445 97.3573 35.2520 0007973 185.7756 174.3395 15.30842054159001
IDEASSat
1 47458U 21006AX 23341.12485674 .00017632 00000-0 61491-3 0 9990
2 47458 97.3675 36.0478 0007447 185.2543 174.8621 15.29661066158976
CubeSX-Sirius-HSE
1 47951U 21022V 23341.80341811 .00009965 00000-0 49041-3 0 9992
2 47951 97.4787 236.6189 0018981 91.0781 269.2628 15.18034074149325
CubeSX-HSE
1 47952U 21022W 23341.83446995 .00008811 00000-0 43306-3 0 9992
2 47952 97.4789 236.7140 0019031 90.4629 269.8786 15.18116402149335
KSU-Cubesat
1 47954U 21022Y 23341.16616207 .00013147 00000-0 61761-3 0 9998
2 47954 97.4794 236.7359 0018326 89.8315 270.5019 15.19589866148993
GRBAlpha
1 47959U 21022AD 23341.81123378 .00009578 00000-0 46924-3 0 9994
2 47959 97.4789 236.8044 0018742 90.7250 269.6132 15.18208348148150
Orbicraft-Zorkiy
1 47960U 21022AE 23341.80015654 .00011749 00000-0 55586-3 0 9999
2 47960 97.4828 237.5264 0018295 88.9556 271.3774 15.19373078148874
STECCO
1 47962U 21022AG 23341.82089098 .00025924 00000-0 88008-3 0 9991
2 47962 97.4799 241.9491 0013145 70.9275 289.3388 15.30401455148494
MO-110
1 47964U 21022AJ 23341.22678093 .00027175 00000-0 88137-3 0 9999
2 47964 97.4814 242.2645 0014708 68.0351 292.2452 15.31843836148453
FEES
1 48082U 21022AL 23341.20920985 .00107665 00000-0 16688-2 0 9993
2 48082 97.4756 246.4476 0010671 63.0129 297.2212 15.53578633148432
TUBIN
1 48900U 21059X 23341.80783525 .00008835 00000-0 37169-3 0 9992
2 48900 97.6207 117.2482 0008829 43.6644 316.5289 15.23599791135579
IT-SPINS
1 49017U 21013G 23341.18603664 .00090353 00000-0 90969-3 0 9991
2 49017 51.5841 299.7422 0002238 115.8130 244.3096 15.64653721136554
LEDSAT
1 49069U 21073D 23341.65239202 .00008282 00000-0 40511-3 0 9997
2 49069 97.4646 49.8519 0020839 236.4947 123.4296 15.18274120127186
CUTE
1 49263U 21088D 23341.18651637 .00009937 00000-0 56529-3 0 9991
2 49263 97.5252 44.2684 0016891 33.4459 326.7835 15.12939818120405
TeikyoSat 4
1 49396U 21102B 23341.13489462 .00002009 00000-0 15285-3 0 9992
2 49396 97.4920 27.6410 0012927 205.5296 154.5293 15.03159397113742
Z-Sat
1 49399U 21102E 23341.75593933 .00003769 00000-0 25905-3 0 9996
2 49399 97.4622 29.4612 0020895 193.6443 166.4222 15.06357535114003
KOSEN 1
1 49402U 21102H 23341.13740418 .00004632 00000-0 29858-3 0 9996
2 49402 97.4556 29.7263 0019874 181.1742 178.9443 15.08633789114012
